Flag for Iran Weather past 2 weeks in Esfahãn, Iran

Now
86 °F

Sunny.


Feels Like: 83 °F
Forecast: 72 / 97 °F
Wind: 7 mph from Northwest

Location: Esfahan

Current Time: Jul 28, 2015 at 11:20:54 AM

Latest Report: Jul 28, 2015 at 10:30 AM


Visibility: 10 mi

Pressure: 29.95 "Hg (25.08 "Hg at 1576m altitude)

Humidity: 11%

Dew point: 27 °F

Location of EsfahãnLocation

Historic Weather in Esfahãn — Graph

°F

Esfahãn temperature yesterday

Maximum temperature yesterday: 97 °F (at 4:00 PM)
Minimum temperature yesterday: 59 °F (at 6:30 AM)
Average temperature yesterday: 82 °F

Past Weeks' High & Low Weather Summary

 TemperatureHumidityPressure
High100 °F (Jul 13, 3:00 PM)100% (Jul 21, 6:00 AM)30.09 "Hg (Jul 21, 6:00 AM)
Low57 °F (Jul 26, 6:30 AM)3% (Jul 14, 12:30 PM)29.59 "Hg (Jul 19, 6:30 PM)
Average81 °F23%29.93 "Hg
* Reported Jul 13 9:30 AM — Jul 28 10:00 AM, Esfahãn, Weather by CustomWeather, © 2015

Note: Actual official high and low records may vary slightly from our data, if they occured in-between our weather recording intervals... More about our weather records

Advertising

Esfahãn weather history for previous 24 hours

 ConditionsComfort  
Time TempWeatherWind HumidityBarometerVisibility
10:00 AM
Tue, Jul 28
84 °FPassing clouds.7 mph12%29.95 "HgN/A
9:30 AM82 °FPassing clouds.5 mph16%29.95 "HgN/A
9:00 AM79 °FHaze.5 mph20%29.95 "Hg3 mi
8:30 AM73 °FHaze.7 mph25%29.92 "Hg2 mi
8:00 AM72 °FHaze.5 mph29%29.92 "Hg1 mi
7:30 AM61 °FPassing clouds.7 mph31%29.92 "Hg5 mi
7:00 AM63 °FPassing clouds.5 mph32%29.92 "Hg5 mi
6:30 AM64 °FPassing clouds.7 mph32%29.89 "Hg5 mi
6:00 AM64 °FPassing clouds.5 mph32%29.89 "Hg5 mi
5:30 AM61 °FClear.5 mph31%29.89 "Hg10 mi
5:00 AM61 °FClear.5 mph29%29.89 "Hg10 mi
4:30 AM70 °FClear.5 mph23%29.89 "Hg10 mi
4:00 AM73 °FClear.5 mph19%29.89 "Hg10 mi
3:30 AM75 °FClear.7 mph18%29.86 "Hg10 mi
2:30 AM77 °FPassing clouds.7 mph17%29.89 "HgN/A
2:00 AM77 °FPassing clouds.5 mph18%29.89 "HgN/A
1:30 AM79 °FPassing clouds.7 mph16%29.89 "HgN/A
1:00 AM79 °FPassing clouds.7 mph16%29.89 "HgN/A
12:30 AM79 °FPassing clouds.7 mph16%29.89 "HgN/A
12:00 AM73 °FPassing clouds.5 mph16%29.89 "HgN/A
11:30 PM
Mon, Jul 27
81 °FPassing clouds.5 mph13%29.89 "HgN/A
11:00 PM81 °FPassing clouds.5 mph13%29.89 "HgN/A
10:30 PM82 °FPassing clouds.7 mph12%29.86 "HgN/A
10:00 PM82 °FPassing clouds.7 mph12%29.86 "HgN/A
9:30 PM86 °FPassing clouds.12 mph12%29.86 "HgN/A
9:00 PM86 °FPassing clouds.12 mph12%29.83 "HgN/A
8:30 PM86 °FPassing clouds.7 mph11%29.83 "HgN/A
8:00 PM90 °FPassing clouds.5 mph10%29.83 "HgN/A
7:30 PM93 °FPassing clouds.5 mph10%29.83 "HgN/A
7:00 PM95 °FPassing clouds.7 mph7%29.80 "HgN/A
6:30 PM95 °FPassing clouds.7 mph7%29.80 "HgN/A
6:00 PM97 °FPassing clouds.5 mph6%29.80 "HgN/A
5:30 PM95 °FPassing clouds.5 mph7%29.83 "HgN/A
5:00 PM97 °FPassing clouds.12 mph6%29.83 "HgN/A
4:30 PM95 °FPassing clouds.9 mph6%29.86 "HgN/A
4:00 PM97 °FPassing clouds.5 mph6%29.86 "HgN/A
3:30 PM95 °FPassing clouds.No wind6%29.86 "HgN/A
3:00 PM95 °FPassing clouds.12 mph7%29.86 "HgN/A
2:30 PM95 °FPassing clouds.5 mph7%29.86 "HgN/A
2:00 PM93 °FPassing clouds.7 mph10%29.89 "HgN/A
1:30 PM93 °FPassing clouds.9 mph10%29.89 "HgN/A
1:00 PM91 °FPassing clouds.7 mph10%29.89 "HgN/A
12:30 PM91 °FPassing clouds.12 mph10%29.92 "HgN/A
12:00 PM90 °FPassing clouds.7 mph12%29.92 "HgN/A
11:30 AM90 °FSunny.5 mph12%29.92 "Hg10 mi
11:00 AM86 °FClear.7 mph15%29.95 "Hg5 mi
Weather by CustomWeather, © 2015

See weather overviewHow to use our weather pages